Erie, PA

1:40 PM EST on December 08, 2019 (GMT -0500)
Erie International

Weather History for KERI - October, 2019

Change the Weather History Date:

Tuesday, October 8, 2019

  Actual Average Record
Temperature  
Mean Temperature 58 °F 56 °F  
Max Temperature 69 °F 63 °F 89 °F (2018)
Min Temperature 48 °F 48 °F 30 °F (1974)
Degree Days  
Heating Degree Days 6 10  
Month to date heating degree days 39 71  
Since 1 July heating degree days 51 195  
Cooling Degree Days 0 0  
Month to date cooling degree days 20 7  
Year to date cooling degree days 845 636  
Growing Degree Days 8 (Base 50)    
Moisture  
Dew Point 47 °F    
Average Humidity 71    
Maximum Humidity 93    
Minimum Humidity 48    
Precipitation  
Precipitation 0.00 in 0.14 in 1.54 in (1944)
Month to date precipitation 0.57 1.17  
Year to date precipitation 30.20 31.61  
Snow  
Snow 0.00 in 0.00 in - ()
Month to date snowfall 0.0 0.0  
Since 1 July snowfall 0.0 0.0  
Since 1 September snowfall 0.0 0.0  
Snow Depth 0.00 in    
Sea Level Pressure  
Sea Level Pressure 30.26 in    
Wind  
Wind Speed 5 mph ()    
Max Wind Speed 17 mph    
Max Gust Speed 20 mph    
Visibility 10.0 miles    
Events      
T = Trace of Precipitation, MM = Missing Value Source: Averaged Metar Reports

Daily Weather History Graph

Daily Weather History Graph

Search for Another Location

Airport or City:

Astronomy

Oct. 08, 2019 Rise Set
Actual Time 7:25 AM EDT 6:50 PM EDT
Civil Twilight 6:57 AM EDT 7:18 PM EDT
Nautical Twilight 6:24 AM EDT 7:51 PM EDT
Astronomical Twilight 5:52 AM EDT 8:23 PM EDT
Moon 4:55 PM EDT 2:06 AM EDT
Length of Visible Light 12h 21m
Length of Day
11h 25m
Waxing Gibbous, 77% of the Moon is Illuminated
Oct 8
Waxing Gibbous
Oct 13
Full
Oct 21
Last Quarter
Oct 27
New
Nov 4
First Quarter

Hourly Weather History & Observations

Time (EDT) Temp. Dew Point Humidity Pressure Visibility Wind Dir Wind Speed Gust Speed Precip Events Conditions
12:51 AM 53.1 °F 50.0 °F 89% 30.23 in 10.0 mi South 4.6 mph - N/A   Clear
1:51 AM 53.1 °F 48.9 °F 86% 30.24 in 10.0 mi SW 3.5 mph - N/A   Scattered Clouds
2:51 AM 52.0 °F 48.0 °F 86% 30.23 in 10.0 mi SSW 5.8 mph - N/A   Clear
3:51 AM 51.1 °F 46.9 °F 86% 30.22 in 10.0 mi SSE 9.2 mph - N/A   Clear
4:51 AM 50.0 °F 46.0 °F 86% 30.25 in 10.0 mi Calm Calm - N/A   Scattered Clouds
5:51 AM 50.0 °F 45.0 °F 83% 30.26 in 10.0 mi Variable 3.5 mph - N/A   Clear
6:51 AM 48.9 °F 46.0 °F 90% 30.28 in 10.0 mi SSE 5.8 mph - N/A   Mostly Cloudy
7:51 AM 48.9 °F 45.0 °F 86% 30.29 in 10.0 mi SSE 4.6 mph - N/A   Partly Cloudy
8:51 AM 51.1 °F 46.9 °F 86% 30.30 in 10.0 mi SSE 6.9 mph - N/A   Overcast
9:51 AM 55.0 °F 48.0 °F 77% 30.31 in 10.0 mi Calm Calm - N/A   Overcast
10:51 AM 62.1 °F 51.1 °F 67% 30.30 in 10.0 mi Calm Calm - N/A   Clear
11:51 AM 64.0 °F 50.0 °F 60% 30.30 in 10.0 mi South 6.9 mph - N/A   Clear
12:51 PM 66.0 °F 46.0 °F 48% 30.29 in 10.0 mi ESE 3.5 mph - N/A   Clear
1:51 PM 66.0 °F 51.1 °F 59% 30.27 in 10.0 mi North 9.2 mph - N/A   Clear
2:51 PM 66.9 °F 51.1 °F 57% 30.26 in 10.0 mi North 9.2 mph - N/A   Clear
3:51 PM 66.0 °F 51.1 °F 59% 30.26 in 10.0 mi NE 12.7 mph - N/A   Clear
4:51 PM 64.9 °F 48.0 °F 54% 30.25 in 10.0 mi NE 15.0 mph - N/A   Clear
5:51 PM 64.0 °F 44.1 °F 48% 30.25 in 10.0 mi NE 12.7 mph - N/A   Clear
6:51 PM 61.0 °F 45.0 °F 56% 30.25 in 10.0 mi NE 11.5 mph - N/A   Clear
7:51 PM 57.0 °F 45.0 °F 64% 30.26 in 10.0 mi East 3.5 mph - N/A   Clear
8:51 PM 55.9 °F 46.0 °F 69% 30.27 in 10.0 mi ENE 3.5 mph - N/A   Clear
9:51 PM 54.0 °F 45.0 °F 72% 30.26 in 10.0 mi ENE 3.5 mph - N/A   Clear
10:51 PM 53.1 °F 45.0 °F 74% 30.26 in 10.0 mi East 3.5 mph - N/A   Clear
11:51 PM 55.0 °F 44.1 °F 67% 30.26 in 10.0 mi SE 8.1 mph - N/A   Clear